Flag for U.S.A. Weather past 2 weeks in San Diego, California, U.S.A.

76 °F

Passing clouds.

Feels Like: 78 °F
Forecast: 74 / 87 °F
Wind: 8 mph from Southwest

Location: San Diego - North Island

Current Time: Oct 9, 2015 at 9:20:44 PM

Latest Report: Oct 9, 2015 at 8:52 PM

Visibility: 7 mi

Pressure: 29.88 "Hg

Humidity: 62%

Dew point: 62 °F

Location of San DiegoLocation

Historic Weather in San Diego — Graph


San Diego temperature yesterday

Maximum temperature yesterday: 79 °F (at 3:52 PM)
Minimum temperature yesterday: 67 °F (at 6:52 AM)
Average temperature yesterday: 74 °F

Past Weeks' High & Low Weather Summary

High93 °F (Oct 9, 2:52 PM)97% (Sep 24, 11:52 PM)30.09 "Hg (Sep 24, 11:52 PM)
Low63 °F (Oct 6, 6:52 AM)23% (Oct 9, 2:52 PM)29.54 "Hg (Sep 27, 2:52 PM)
Average73 °F76%29.87 "Hg
* Reported Sep 24 7:52 PM — Oct 9 7:52 PM, San Diego, Weather by CustomWeather, © 2015

Note: Actual official high and low records may vary slightly from our data, if they occured in-between our weather recording intervals... More about our weather records


San Diego weather history for previous 24 hours

Time TempWeatherWind HumidityBarometerVisibility
7:52 PM
Fri, Oct 9
81 °FPassing clouds.6 mph51%29.87 "Hg9 mi
6:52 PM85 °FPassing clouds.6 mph40%29.84 "Hg10 mi
5:52 PM89 °FPassing clouds.6 mph36%29.82 "Hg10 mi
4:52 PM87 °FPassing clouds.10 mph42%29.81 "Hg10 mi
3:52 PM91 °FPassing clouds.15 mph26%29.81 "Hg10 mi
2:52 PM93 °FPassing clouds.16 mph23%29.82 "Hg10 mi
1:52 PM87 °FPassing clouds.14 mph37%29.84 "Hg10 mi
12:52 PM88 °FPassing clouds.13 mph35%29.85 "Hg10 mi
11:52 AM84 °FPassing clouds.8 mph44%29.88 "Hg10 mi
10:52 AM80 °FPassing clouds.5 mph59%29.90 "Hg10 mi
9:52 AM77 °FPassing clouds.No wind61%29.90 "Hg10 mi
8:52 AM74 °FPassing clouds.No wind67%29.91 "Hg10 mi
7:52 AM70 °FScattered clouds.No wind86%29.90 "Hg10 mi
6:52 AM68 °FPassing clouds.No wind84%29.90 "Hg10 mi
5:52 AM70 °FPassing clouds.No wind81%29.89 "Hg10 mi
4:52 AM71 °FPassing clouds.3 mph81%29.89 "Hg8 mi
3:52 AM70 °FPassing clouds.3 mph86%29.89 "Hg8 mi
1:52 AM72 °FPassing clouds.3 mph88%29.92 "Hg8 mi
12:52 AM72 °FPassing clouds.No wind87%29.91 "Hg10 mi
11:52 PM
Thu, Oct 8
73 °FPassing clouds.No wind86%29.92 "Hg10 mi
10:52 PM76 °FPassing clouds.No wind80%29.93 "Hg10 mi
9:52 PM73 °FPassing clouds.No wind82%29.94 "Hg10 mi
Weather by CustomWeather, © 2015

See weather overviewHow to use our weather pages